• In Latvia
  • List of Countries
  • For 7 days
  • Water Temperature
  • Satellite Maps
  • Weather Map
  • Weather Widgets
  • user-avatar
    Login

    Hourly Weather Vatican

    Today, 24 November, Friday

    Time Temperature Precipitation Wind Pressure Humidity
    00:00 +13°C° 0.1 mm 3 mps 764 mmHg 84%
    01:00 +13°C° 0 mm 3 mps 764 mmHg 85%
    02:00 +13°C° 0 mm 3 mps 764 mmHg 85%
    03:00 +12°C° 0 mm 3 mps 764 mmHg 86%
    04:00 +12°C° 0 mm 3 mps 764 mmHg 86%
    05:00 +12°C° 0 mm 3 mps 764 mmHg 86%
    06:00 +12°C° 0 mm 3 mps 764 mmHg 86%
    07:00 +12°C° 0 mm 3 mps 764 mmHg 86%
    08:00 +13°C° 0 mm 3 mps 764 mmHg 82%
    09:00 +14°C° 0 mm 3 mps 764 mmHg 78%
    10:00 +17°C° 0 mm 3 mps 764 mmHg 74%
    11:00 +17°C° 0 mm 3 mps 764 mmHg 71%
    12:00 +18°C° 0 mm 3 mps 764 mmHg 69%
    13:00 +19°C° 0 mm 3 mps 764 mmHg 66%
    14:00 +18°C° 0 mm 3 mps 763 mmHg 70%
    15:00 +18°C° 0 mm 3 mps 763 mmHg 73%
    16:00 +17°C° 0 mm 2 mps 763 mmHg 76%
    17:00 +17°C° 0 mm 2 mps 763 mmHg 80%
    18:00 +16°C° 0 mm 2 mps 764 mmHg 84%
    19:00 +15°C° 0 mm 2 mps 764 mmHg 88%
    20:00 +15°C° 0 mm 2 mps 764 mmHg 88%
    21:00 +15°C° 0 mm 2 mps 764 mmHg 88%
    22:00 +14°C° 0 mm 2 mps 764 mmHg 89%
    23:00 +14°C° 0 mm 2 mps 764 mmHg 88%

    Tomorrow, 25 November, Saturday

    Time Temperature Precipitation Wind Pressure Humidity
    00:00 +14°C° 0 mm 2 mps 764 mmHg 88%
    01:00 +14°C° 0 mm 2 mps 764 mmHg 88%
    02:00 +14°C° 0 mm 2 mps 763 mmHg 88%
    03:00 +13°C° 0 mm 3 mps 763 mmHg 88%
    04:00 +13°C° 0 mm 3 mps 762 mmHg 88%
    05:00 +13°C° 0 mm 3 mps 762 mmHg 88%
    06:00 +14°C° 0 mm 3 mps 762 mmHg 88%
    07:00 +14°C° 0 mm 4 mps 762 mmHg 88%
    08:00 +14°C° 0 mm 4 mps 761 mmHg 85%
    09:00 +15°C° 0 mm 5 mps 761 mmHg 82%
    10:00 +16°C° 0 mm 5 mps 761 mmHg 79%
    11:00 +17°C° 0 mm 5 mps 761 mmHg 77%
    12:00 +17°C° 0 mm 6 mps 760 mmHg 74%
    13:00 +19°C° 0 mm 6 mps 760 mmHg 72%
    14:00 +17°C° 0 mm 6 mps 760 mmHg 75%
    15:00 +17°C° 0 mm 5 mps 759 mmHg 77%
    16:00 +17°C° 0 mm 5 mps 759 mmHg 80%
    17:00 +16°C° 0.1 mm 5 mps 759 mmHg 83%
    18:00 +16°C° 0.1 mm 5 mps 759 mmHg 85%
    19:00 +16°C° 0.1 mm 5 mps 759 mmHg 88%
    20:00 +16°C° 0.1 mm 6 mps 759 mmHg 86%
    21:00 +16°C° 0.1 mm 6 mps 759 mmHg 84%
    22:00 +16°C° 0.1 mm 7 mps 759 mmHg 82%
    23:00 +16°C° 0.1 mm 7 mps 759 mmHg 80%

    Day after tomorrow, 26 November, Sunday

    Time Temperature Precipitation Wind Pressure Humidity
    00:00 +16°C° 0.1 mm 8 mps 758 mmHg 78%
    01:00 +15°C° 0.1 mm 9 mps 758 mmHg 77%
    02:00 +15°C° 0 mm 9 mps 758 mmHg 74%
    03:00 +13°C° 0 mm 9 mps 758 mmHg 71%
    04:00 +13°C° 0 mm 9 mps 758 mmHg 68%
    05:00 +13°C° 0 mm 9 mps 758 mmHg 69%
    06:00 +12°C° 0 mm 8 mps 758 mmHg 69%
    07:00 +12°C° 0 mm 7 mps 758 mmHg 69%
    08:00 +12°C° 0 mm 7 mps 758 mmHg 65%
    09:00 +14°C° 0 mm 7 mps 758 mmHg 60%
    10:00 +15°C° 0 mm 6 mps 758 mmHg 56%
    11:00 +15°C° 0 mm 6 mps 758 mmHg 56%
    12:00 +15°C° 0 mm 7 mps 757 mmHg 55%
    13:00 +15°C° 0 mm 7 mps 757 mmHg 55%
    14:00 +14°C° 0.1 mm 7 mps 757 mmHg 56%
    15:00 +13°C° 0.1 mm 8 mps 757 mmHg 58%
    16:00 +12°C° 0.1 mm 8 mps 758 mmHg 59%
    17:00 +11°C° 0 mm 9 mps 758 mmHg 63%
    18:00 +10°C° 0 mm 9 mps 759 mmHg 67%
    19:00 +8°C° 0 mm 10 mps 759 mmHg 70%
    20:00 +8°C° 0 mm 10 mps 760 mmHg 71%
    21:00 +7°C° 0 mm 11 mps 760 mmHg 71%
    22:00 +7°C° 0 mm 11 mps 761 mmHg 71%
    23:00 +7°C° 0 mm 11 mps 761 mmHg 69%

    27 November, Monday

    Time Temperature Precipitation Wind Pressure Humidity
    00:00 +8°C° 0 mm 11 mps 761 mmHg 66%
    01:00 +8°C° 0 mm 11 mps 762 mmHg 64%
    02:00 +7°C° 0 mm 10 mps 762 mmHg 64%
    03:00 +7°C° 0 mm 10 mps 763 mmHg 63%
    04:00 +7°C° 0 mm 9 mps 763 mmHg 62%
    05:00 +6°C° 0 mm 9 mps 763 mmHg 62%
    06:00 +6°C° 0 mm 9 mps 764 mmHg 62%
    07:00 +6°C° 0 mm 9 mps 765 mmHg 62%
    08:00 +7°C° 0 mm 9 mps 765 mmHg 59%
    09:00 +7°C° 0 mm 9 mps 765 mmHg 55%
    10:00 +8°C° 0 mm 9 mps 766 mmHg 51%
    11:00 +10°C° 0 mm 8 mps 766 mmHg 48%
    12:00 +11°C° 0 mm 8 mps 766 mmHg 44%
    13:00 +12°C° 0 mm 7 mps 765 mmHg 40%
    14:00 +11°C° 0 mm 7 mps 765 mmHg 40%
    15:00 +11°C° 0 mm 7 mps 765 mmHg 41%
    16:00 +10°C° 0 mm 7 mps 765 mmHg 41%
    17:00 +9°C° 0 mm 8 mps 766 mmHg 43%
    18:00 +7°C° 0 mm 8 mps 766 mmHg 46%
    19:00 +6°C° 0 mm 8 mps 766 mmHg 48%
    20:00 +6°C° 0 mm 7 mps 766 mmHg 49%
    21:00 +5°C° 0 mm 7 mps 767 mmHg 50%
    22:00 +5°C° 0 mm 7 mps 767 mmHg 51%
    23:00 +4°C° 0 mm 6 mps 767 mmHg 51%

    28 November, Tuesday

    Time Temperature Precipitation Wind Pressure Humidity
    00:00 +4°C° 0 mm 6 mps 766 mmHg 51%
    01:00 +4°C° 0 mm 6 mps 766 mmHg 52%
    02:00 +3°C° 0 mm 5 mps 766 mmHg 53%
    03:00 +3°C° 0 mm 5 mps 766 mmHg 54%
    04:00 +3°C° 0 mm 5 mps 765 mmHg 55%
    05:00 +4°C° 0 mm 4 mps 765 mmHg 55%
    06:00 +4°C° 0 mm 4 mps 765 mmHg 55%
    07:00 +4°C° 0 mm 4 mps 765 mmHg 56%
    08:00 +5°C° 0 mm 3 mps 765 mmHg 51%
    09:00 +7°C° 0 mm 3 mps 765 mmHg 46%
    10:00 +9°C° 0 mm 2 mps 765 mmHg 41%
    11:00 +10°C° 0 mm 2 mps 764 mmHg 39%
    12:00 +10°C° 0 mm 2 mps 764 mmHg 38%
    13:00 +12°C° 0 mm 1 mps 763 mmHg 36%
    14:00 +12°C° 0 mm 1 mps 763 mmHg 39%
    15:00 +11°C° 0 mm 1 mps 763 mmHg 41%
    16:00 +11°C° 0 mm 1 mps 762 mmHg 44%
    17:00 +10°C° 0 mm 1 mps 762 mmHg 46%
    18:00 +9°C° 0 mm 1 mps 762 mmHg 49%
    19:00 +7°C° 0 mm 0 mps 762 mmHg 51%
    20:00 +7°C° 0 mm 0 mps 762 mmHg 52%
    21:00 +8°C° 0 mm 1 mps 762 mmHg 54%
    22:00 +8°C° 0 mm 1 mps 762 mmHg 55%
    23:00 +7°C° 0 mm 1 mps 762 mmHg 57%

    29 November, Wednesday

    Time Temperature Precipitation Wind Pressure Humidity
    00:00 +7°C° 0 mm 1 mps 762 mmHg 59%
    01:00 +7°C° 0 mm 1 mps 762 mmHg 61%
    02:00 +6°C° 0 mm 2 mps 761 mmHg 63%
    03:00 +6°C° 0 mm 2 mps 761 mmHg 66%
    04:00 +6°C° 0 mm 2 mps 761 mmHg 68%
    05:00 +5°C° 0 mm 3 mps 760 mmHg 69%
    06:00 +5°C° 0 mm 3 mps 760 mmHg 70%
    07:00 +5°C° 0 mm 3 mps 760 mmHg 72%
    08:00 +6°C° 0 mm 4 mps 760 mmHg 68%
    09:00 +8°C° 0 mm 4 mps 760 mmHg 65%
    10:00 +9°C° 0 mm 5 mps 760 mmHg 61%
    11:00 +10°C° 0 mm 5 mps 759 mmHg 60%
    12:00 +12°C° 0 mm 5 mps 759 mmHg 60%
    13:00 +13°C° 0 mm 6 mps 758 mmHg 59%
    14:00 +11°C° 0.1 mm 6 mps 758 mmHg 62%
    15:00 +11°C° 0.1 mm 6 mps 758 mmHg 64%
    16:00 +11°C° 0.1 mm 6 mps 757 mmHg 67%
    17:00 +10°C° 0.1 mm 7 mps 757 mmHg 69%
    18:00 +10°C° 0.1 mm 7 mps 757 mmHg 71%
    19:00 +9°C° 0.1 mm 7 mps 757 mmHg 74%
    20:00 +10°C° 0.4 mm 7 mps 757 mmHg 73%
    21:00 +10°C° 0.4 mm 8 mps 757 mmHg 72%
    22:00 +10°C° 0.4 mm 8 mps 757 mmHg 72%
    23:00 +10°C° 1.1 mm 8 mps 757 mmHg 75%
    Show more